Change the Weather History Date:

Monday, July 29, 2013

  Actual Average Record
Temperature  
Mean Temperature 60 °F -  
Max Temperature 71 °F - - ()
Min Temperature 50 °F - - ()
Degree Days  
Heating Degree Days 4    
Growing Degree Days 10 (Base 50)    
Moisture  
Dew Point 40 °F    
Average Humidity 52    
Maximum Humidity 82    
Minimum Humidity 25    
Precipitation  
Precipitation 0.00 in - - ()
Sea Level Pressure  
Sea Level Pressure 30.41 in    
Wind  
Wind Speed 6 mph (WNW)    
Max Wind Speed 26 mph    
Max Gust Speed 45 mph    
Visibility 10 miles    
Events Rain , Thunderstorm    
T = Trace of Precipitation, MM = Missing Value Source: NWS Daily Summary

Daily Weather History Graph

Daily Weather History Graph

Search for Another Location

Airport or City:

Trip Planner

Search our weather history database for the weather conditions in past years. The results will help you decide how hot, cold, wet, or windy it might be!

Date:

Astronomy

Jul. 29, 2013 Rise Set
Actual Time 6:03 AM MDT 8:18 PM MDT
Civil Twilight 5:33 AM MDT 8:48 PM MDT
Nautical Twilight 4:57 AM MDT 9:24 PM MDT
Astronomical Twilight 4:16 AM MDT 10:04 PM MDT
Moon No Moon Rise 1:43 PM MDT (7/29)
Length of Visible Light 15h 14m
Length of Day
14h 14m
Waning Gibbous, 50% of the Moon is Illuminated
Jul 29
Waning Gibbous
Aug 6
New
Aug 14
First Quarter
Aug 20
Full
Aug 28
Last Quarter

Hourly Weather History & Observations

Time (MDT) Temp. Dew Point Humidity Pressure Visibility Wind Dir Wind Speed Gust Speed Precip Events Conditions
12:15 AM 53.6 °F 46.4 °F 77% 30.35 in 10.0 mi South 5.8 mph - N/A   Scattered Clouds
12:35 AM 53.6 °F 46.4 °F 77% 30.35 in 10.0 mi ESE 9.2 mph - N/A   Mostly Cloudy
12:55 AM 53.6 °F 46.4 °F 77% 30.35 in 10.0 mi South 5.8 mph - N/A   Overcast
1:15 AM 53.6 °F 44.6 °F 72% 30.35 in 10.0 mi Calm Calm - N/A   Mostly Cloudy
1:35 AM 53.6 °F 44.6 °F 72% 30.34 in 10.0 mi Calm Calm - N/A   Mostly Cloudy
1:55 AM 53.6 °F 44.6 °F 72% 30.34 in 10.0 mi Calm Calm - N/A   Scattered Clouds
2:15 AM 53.6 °F 44.6 °F 72% 30.34 in 10.0 mi Calm Calm - N/A   Mostly Cloudy
2:34 AM 53.6 °F 42.8 °F 67% 30.35 in 10.0 mi NNE 5.8 mph - N/A   Scattered Clouds
2:55 AM 53.6 °F 42.8 °F 67% 30.33 in 10.0 mi Calm Calm - N/A   Mostly Cloudy
3:15 AM 51.8 °F 44.6 °F 76% 30.33 in 10.0 mi Calm Calm - N/A   Overcast
3:35 AM 53.6 °F 44.6 °F 72% 30.33 in 10.0 mi Calm Calm - N/A Thunderstorm Overcast
3:55 AM 53.6 °F 44.6 °F 72% 30.33 in 10.0 mi Calm Calm - N/A   Overcast
4:15 AM 51.8 °F 46.4 °F 82% 30.33 in 10.0 mi Calm Calm - N/A   Overcast
4:35 AM 53.6 °F 44.6 °F 72% 30.33 in 10.0 mi Calm Calm - N/A   Overcast
4:55 AM 53.6 °F 44.6 °F 72% 30.33 in 10.0 mi NNW 4.6 mph - N/A   Light Drizzle
5:15 AM 53.6 °F 44.6 °F 72% 30.33 in 10.0 mi WNW 8.1 mph - N/A   Overcast
5:35 AM 55.4 °F 42.8 °F 63% 30.34 in 10.0 mi West 12.7 mph 18.4 mph N/A   Overcast
5:55 AM 53.6 °F 41.0 °F 62% 30.35 in 10.0 mi West 15.0 mph 19.6 mph N/A   Overcast
6:15 AM 53.6 °F 41.0 °F 62% 30.35 in 10.0 mi West 18.4 mph 26.5 mph N/A   Overcast
6:35 AM 53.6 °F 41.0 °F 62% 30.35 in 10.0 mi NNW 8.1 mph 20.7 mph N/A   Overcast
6:54 AM 51.8 °F 41.0 °F 67% 30.36 in 10.0 mi WNW 5.8 mph - N/A   Mostly Cloudy
7:15 AM 53.6 °F 39.2 °F 58% 30.37 in 10.0 mi NNW 3.5 mph - N/A   Scattered Clouds
7:35 AM 55.4 °F 41.0 °F 58% 30.37 in 10.0 mi North 8.1 mph - N/A   Scattered Clouds
7:55 AM 55.4 °F 42.8 °F 63% 30.37 in 10.0 mi Calm Calm - N/A   Scattered Clouds
8:15 AM 55.4 °F 42.8 °F 63% 30.37 in 10.0 mi North 5.8 mph - N/A   Mostly Cloudy
8:35 AM 55.4 °F 42.8 °F 63% 30.38 in 10.0 mi North 3.5 mph - N/A   Scattered Clouds
8:55 AM 59.0 °F 42.8 °F 55% 30.37 in 10.0 mi ENE 3.5 mph - N/A   Scattered Clouds
9:15 AM 60.8 °F 42.8 °F 52% 30.38 in 10.0 mi WNW 4.6 mph - N/A   Scattered Clouds
9:35 AM 59.0 °F 41.0 °F 51% 30.38 in 10.0 mi NNW 3.5 mph - N/A   Mostly Cloudy
9:55 AM 59.0 °F 39.2 °F 48% 30.39 in 10.0 mi West 5.8 mph - N/A   Overcast
10:15 AM 60.8 °F 41.0 °F 48% 30.39 in 10.0 mi West 4.6 mph - N/A   Overcast
10:35 AM 62.6 °F 37.4 °F 39% 30.39 in 10.0 mi West 10.4 mph 17.3 mph N/A   Scattered Clouds
10:55 AM 60.8 °F 37.4 °F 42% 30.40 in 10.0 mi West 3.5 mph 24.2 mph N/A   Mostly Cloudy
11:15 AM 60.8 °F 41.0 °F 48% 30.41 in 10.0 mi NNW 6.9 mph - N/A   Mostly Cloudy
11:35 AM 62.6 °F 37.4 °F 39% 30.41 in 10.0 mi West 13.8 mph 24.2 mph N/A   Scattered Clouds
11:55 AM 62.6 °F 39.2 °F 42% 30.41 in 10.0 mi West 11.5 mph 29.9 mph N/A   Scattered Clouds
12:15 PM 66.2 °F 41.0 °F 40% 30.41 in 10.0 mi North 3.5 mph - N/A   Scattered Clouds
12:35 PM 66.2 °F 41.0 °F 40% 30.41 in 10.0 mi West 8.1 mph - N/A   Scattered Clouds
12:55 PM 66.2 °F 37.4 °F 35% 30.41 in 10.0 mi West 9.2 mph 17.3 mph N/A   Scattered Clouds
1:15 PM 68.0 °F 37.4 °F 33% 30.41 in 10.0 mi WNW 6.9 mph 18.4 mph N/A   Scattered Clouds
1:35 PM 68.0 °F 35.6 °F 30% 30.41 in 10.0 mi West 6.9 mph 17.3 mph N/A   Scattered Clouds
1:55 PM 68.0 °F 33.8 °F 28% 30.41 in 10.0 mi West 12.7 mph 23.0 mph N/A   Clear
2:15 PM 68.0 °F 33.8 °F 28% 30.42 in 10.0 mi West 11.5 mph 26.5 mph N/A   Clear
2:35 PM 68.0 °F 33.8 °F 28% 30.42 in 10.0 mi West 13.8 mph 24.2 mph N/A Thunderstorm Scattered Clouds
2:55 PM 68.0 °F 35.6 °F 30% 30.42 in 10.0 mi West 4.6 mph 25.3 mph N/A   Scattered Clouds
3:15 PM 68.0 °F 35.6 °F 30% 30.42 in 10.0 mi NW 3.5 mph 17.3 mph N/A Thunderstorm Mostly Cloudy
3:35 PM 68.0 °F 33.8 °F 28% 30.42 in 10.0 mi WNW 4.6 mph 16.1 mph N/A   Scattered Clouds
3:55 PM 69.8 °F 33.8 °F 27% 30.41 in 10.0 mi North 3.5 mph 21.9 mph N/A   Mostly Cloudy
4:15 PM 71.6 °F 33.8 °F 25% 30.41 in 10.0 mi WNW 5.8 mph - N/A   Scattered Clouds
4:35 PM 69.8 °F 35.6 °F 28% 30.42 in 10.0 mi WNW 6.9 mph - N/A   Clear
4:55 PM 71.6 °F 35.6 °F 27% 30.42 in 10.0 mi West 3.5 mph - N/A   Scattered Clouds
5:15 PM 68.0 °F 33.8 °F 28% 30.43 in 10.0 mi West 9.2 mph 19.6 mph N/A   Clear
5:35 PM 69.8 °F 35.6 °F 28% 30.43 in 10.0 mi Calm Calm - N/A   Clear
5:55 PM 69.8 °F 33.8 °F 27% 30.43 in 10.0 mi WNW 4.6 mph 16.1 mph N/A   Clear
6:15 PM 68.0 °F 33.8 °F 28% 30.43 in 10.0 mi West 3.5 mph - N/A   Scattered Clouds
6:35 PM 64.4 °F 35.6 °F 34% 30.44 in 10.0 mi West 6.9 mph - N/A   Mostly Cloudy
6:55 PM 60.8 °F 37.4 °F 42% 30.45 in 10.0 mi WSW 15.0 mph 31.1 mph N/A Rain Light Rain
7:15 PM 60.8 °F 41.0 °F 48% 30.44 in 10.0 mi WSW 12.7 mph 17.3 mph N/A Thunderstorm Mostly Cloudy
7:35 PM 60.8 °F 41.0 °F 48% 30.45 in 10.0 mi WSW 16.1 mph 20.7 mph N/A Thunderstorm Scattered Clouds
7:55 PM 60.8 °F 37.4 °F 42% 30.46 in 10.0 mi WSW 11.5 mph 18.4 mph N/A Rain Light Rain
8:15 PM 60.8 °F 41.0 °F 48% 30.47 in 10.0 mi West 13.8 mph 20.7 mph N/A   Scattered Clouds
8:34 PM 59.0 °F 41.0 °F 51% 30.47 in 10.0 mi West 15.0 mph 21.9 mph N/A Thunderstorm Scattered Clouds
8:55 PM 60.8 °F 39.2 °F 45% 30.48 in 10.0 mi West 18.4 mph 24.2 mph N/A Rain , Thunderstorm Light Thunderstorms and Rain
9:15 PM 51.8 °F 42.8 °F 71% 30.54 in 3.0 mi West 26.5 mph 44.9 mph N/A Rain , Thunderstorm Thunderstorms and Rain
9:34 PM 50.0 °F 41.0 °F 71% 30.54 in 7.0 mi West 20.7 mph 40.3 mph N/A Rain , Thunderstorm Light Thunderstorms and Rain
9:55 PM 50.0 °F 39.2 °F 66% 30.50 in 10.0 mi West 21.9 mph 32.2 mph N/A   Overcast
10:14 PM 50.0 °F 41.0 °F 71% 30.51 in 10.0 mi North 3.5 mph 17.3 mph N/A   Overcast
10:35 PM 50.0 °F 41.0 °F 71% 30.53 in 10.0 mi NNW 5.8 mph - N/A   Mostly Cloudy
10:55 PM 50.0 °F 41.0 °F 71% 30.52 in 10.0 mi NW 5.8 mph - N/A   Scattered Clouds
11:14 PM 51.8 °F 37.4 °F 58% 30.52 in 10.0 mi WNW 5.8 mph - N/A   Clear
11:35 PM 51.8 °F 37.4 °F 58% 30.52 in 10.0 mi NNW 5.8 mph - N/A Thunderstorm Clear
11:55 PM 51.8 °F 35.6 °F 54% 30.53 in 10.0 mi West 5.8 mph - N/A   Clear